Regional Weather Roundup
Issued by NWS Raleigh/Durham, NC

Home | Current Version | Previous Version | Text Only | Print | Product List | Glossary On
Versions: 1 2 3 4 5 6 7 8 9 10 11 12 13 14 15 16 17 18 19 20 21 22 23 24 25 26 27 28 29 30 31 32 33 34 35 36 37 38 39 40 41 42 43 44 45 46 47 48 49 50
000
ASUS42 KRAH 242310
RWRRAH
NORTH CAROLINA WEATHER ROUNDUP
NATIONAL WEATHER SERVICE RALEIGH NC
700 PM EDT SUN MAY 24 2015

NOTE: "FAIR" INDICATES FEW OR NO CLOUDS BELOW 12,000 FEET WITH NO
SIGNIFICANT WEATHER AND/OR OBSTRUCTIONS TO VISIBILITY.

NCZ001-053-055-056-065-067-250000-
WESTERN NORTH CAROLINA

CITY           SKY/WX    TMP DP  RH WIND       PRES   REMARKS
ASHEVILLE      SUNNY     74  47  38 S10       30.32F
JEFFERSON      SUNNY     68  46  45 SE3       30.36F
MORGANTON      MOSUNNY   79  48  33 S5        30.34R
HICKORY        MOSUNNY   78  50  37 VRB5      30.30S
RUTHERFORDTON  SUNNY     79  51  38 S5        30.29F
MOUNT AIRY     SUNNY     79  52  39 S7        30.32R
BOONE          SUNNY     69  47  45 SE7       30.37F
$$

NCZ021-022-025-041-071-084-088-250000-
CENTRAL NORTH CAROLINA

CITY           SKY/WX    TMP DP  RH WIND       PRES   REMARKS
CHARLOTTE      MOSUNNY   80  49  33 SE12      30.28F
GREENSBORO     MOSUNNY   78  52  40 S9        30.29F
WINSTON-SALEM  SUNNY     78  51  38 S9        30.30F
RALEIGH-DURHAM MOSUNNY   79  52  38 S10       30.30F
FORT BRAGG     SUNNY     79  53  41 SE7       30.29S
FAYETTEVILLE   SUNNY     81  54  39 SE10      30.29F
BURLINGTON     SUNNY     79  53  40 SE7       30.30S
LAURINBURG     SUNNY     80  54  40 SE13      30.30F
$$

NCZ011-015-027-028-043-044-047-080-103-250000-
NORTHEASTERN NORTH CAROLINA

CITY           SKY/WX    TMP DP  RH WIND       PRES   REMARKS
ROCKY MT-WILSO SUNNY     80  53  39 S6        30.30F
GREENVILLE     MOSUNNY   81  57  44 SE8       30.32S
WASHINGTON     SUNNY     77  55  46 S6        30.33S
ELIZABETH CITY SUNNY     74  58  57 SE8       30.33S
MANTEO         SUNNY     72  54  53 S8        30.35S
CAPE HATTERAS  SUNNY     73  54  51 SE7       30.35F
$$

NCZ078-087-090-091-093-098-101-250000-
SOUTHEASTERN NORTH CAROLINA

CITY           SKY/WX    TMP DP  RH WIND       PRES   REMARKS
LUMBERTON      SUNNY     80  56  43 S9G18     30.30S
GOLDSBORO      SUNNY     80  56  44 S2        30.29
KINSTON        SUNNY     79  54  41 S12       30.32
KENANSVILLE    SUNNY     77  52  41 CALM      30.33S
NEW BERN       SUNNY     77  56  48 S12       30.34S
CHERRY POINT     N/A     75  56  51 S7        30.35S
BEAUFORT       SUNNY     74  58  57 SE7       30.34S
JACKSONVILLE   SUNNY     75  58  55 S10       30.33F
WILMINGTON       N/A     76  58  53 SE8       30.33F
$$




USA.gov is the U.S. government's official web portal to all federal, state and local government web resources and services.